�������C�����ː����j�^�v���󋵏��
Date,Time,Cs137(Bq/L),Cs134(Bq/L),�S��(Bq/L)
2021/02/16,00:00,-,-,23
2021/02/16,00:10,-,-,23
2021/02/16,00:20,-,-,22
2021/02/16,00:30,-,-,22
2021/02/16,00:40,-,-,20
2021/02/16,00:50,-,-,22
2021/02/16,01:00,-,-,20
2021/02/16,01:10,-,-,22
2021/02/16,01:20,-,-,23
2021/02/16,01:30,-,-,20
2021/02/16,01:40,-,-,20
2021/02/16,01:50,-,-,19
2021/02/16,02:00,-,-,19
2021/02/16,02:10,-,-,17
2021/02/16,02:20,-,-,15
2021/02/16,02:30,-,-,16
2021/02/16,02:40,-,-,16
2021/02/16,02:50,-,-,16
2021/02/16,03:00,-,-,15
2021/02/16,03:10,-,-,13
2021/02/16,03:20,-,-,14
2021/02/16,03:30,-,-,17
2021/02/16,03:40,-,-,16
2021/02/16,03:50,-,-,15
2021/02/16,04:00,-,-,16
2021/02/16,04:10,-,-,18
2021/02/16,04:20,-,-,20
2021/02/16,04:30,-,-,19
2021/02/16,04:40,-,-,19
2021/02/16,04:50,-,-,22
2021/02/16,05:00,-,-,24
2021/02/16,05:10,-,-,22
2021/02/16,05:20,-,-,20
2021/02/16,05:30,-,-,18
2021/02/16,05:40,-,-,21
2021/02/16,05:50,-,-,21
2021/02/16,06:00,-,-,21
2021/02/16,06:10,-,-,23
2021/02/16,06:20,-,-,22
2021/02/16,06:30,-,-,24
2021/02/16,06:40,-,-,25
2021/02/16,06:50,-,-,23
2021/02/16,07:00,-,-,20
2021/02/16,07:10,-,-,21
2021/02/16,07:20,-,-,22
2021/02/16,07:30,-,-,22
2021/02/16,07:40,-,-,17
2021/02/16,07:50,-,-,15
2021/02/16,08:00,-,-,16
2021/02/16,08:10,-,-,14
2021/02/16,08:20,-,-,13
2021/02/16,08:30,-,-,13
2021/02/16,08:40,-,-,14
2021/02/16,08:50,-,-,15
2021/02/16,09:00,-,-,14
2021/02/16,09:10,-,-,12
2021/02/16,09:20,-,-,14
2021/02/16,09:30,-,-,13
2021/02/16,09:40,-,-,15
2021/02/16,09:50,-,-,16
2021/02/16,10:00,-,-,17
2021/02/16,10:10,-,-,20
2021/02/16,10:20,-,-,18
2021/02/16,10:30,-,-,18
2021/02/16,10:40,-,-,18
2021/02/16,10:50,-,-,18
2021/02/16,11:00,-,-,21
2021/02/16,11:10,-,-,18
2021/02/16,11:20,-,-,19
2021/02/16,11:30,-,-,18
2021/02/16,11:40,-,-,18
2021/02/16,11:50,-,-,17
2021/02/16,12:00,-,-,16
2021/02/16,12:10,-,-,16
2021/02/16,12:20,-,-,17
2021/02/16,12:30,-,-,18
2021/02/16,12:40,-,-,20
2021/02/16,12:50,-,-,18
2021/02/16,13:00,-,-,18
2021/02/16,13:10,-,-,20
2021/02/16,13:20,-,-,18
2021/02/16,13:30,-,-,20
2021/02/16,13:40,-,-,17
2021/02/16,13:50,-,-,19
2021/02/16,14:00,-,-,18
2021/02/16,14:10,-,-,20
2021/02/16,14:20,-,-,21
2021/02/16,14:30,-,-,19
2021/02/16,14:40,-,-,23
2021/02/16,14:50,-,-,23
2021/02/16,15:00,-,-,25
2021/02/16,15:10,-,-,21
2021/02/16,15:20,-,-,21
2021/02/16,15:30,-,-,21
2021/02/16,15:40,-,-,20
2021/02/16,15:50,-,-,19
2021/02/16,16:00,-,-,17
2021/02/16,16:10,-,-,16
2021/02/16,16:20,-,-,16
2021/02/16,16:30,-,-,16
2021/02/16,16:40,-,-,14
2021/02/16,16:50,-,-,13
2021/02/16,17:00,-,-,15
2021/02/16,17:10,-,-,14
2021/02/16,17:20,-,-,14
2021/02/16,17:30,-,-,12
2021/02/16,17:40,-,-,14
2021/02/16,17:50,-,-,16
2021/02/16,18:00,-,-,15
2021/02/16,18:10,-,-,17
2021/02/16,18:20,-,-,17
2021/02/16,18:30,-,-,19
2021/02/16,18:40,-,-,16
2021/02/16,18:50,-,-,14
2021/02/16,19:00,-,-,16
2021/02/16,19:10,-,-,15
2021/02/16,19:20,-,-,15
2021/02/16,19:30,-,-,14
2021/02/16,19:40,-,-,15
2021/02/16,19:50,-,-,15
2021/02/16,20:00,-,-,14
2021/02/16,20:10,-,-,16
2021/02/16,20:20,-,-,17
2021/02/16,20:30,-,-,16
2021/02/16,20:40,-,-,18
2021/02/16,20:50,-,-,19
2021/02/16,21:00,-,-,20
2021/02/16,21:10,-,-,17
2021/02/16,21:20,-,-,15
2021/02/16,21:30,-,-,17
2021/02/16,21:40,-,-,14
2021/02/16,21:50,-,-,17
2021/02/16,22:00,-,-,17
2021/02/16,22:10,-,-,17
2021/02/16,22:20,-,-,19
2021/02/16,22:30,-,-,19
2021/02/16,22:40,-,-,18
2021/02/16,22:50,-,-,16
2021/02/16,23:00,-,-,17
2021/02/16,23:10,-,-,16
2021/02/16,23:20,-,-,18
2021/02/16,23:30,-,-,17
2021/02/16,23:40,-,-,18
2021/02/16,23:50,-,-,18
